Station 44022 - Execution Rocks Image indicating link to RSS feed of recent meteorological observations for station 44022


Conditions at 44022 as of
(11:30 pm EDT on 04/14/2024)
0330 GMT on 04/15/2024:
     

Click on the graph icon in the table below to see a time series plot of the last five days of that observation.

5-day plot - Wind Direction Wind Direction (WDIR): SW ( 220 deg true )
5-day plot - Wind Speed Wind Speed (WSPD): 17.5 kts
5-day plot - Atmospheric Pressure Atmospheric Pressure (PRES):29.68 in
5-day plot - Air Temperature Air Temperature (ATMP): 61.0 °F
5-day plot - Dew Point Dew Point (DEWP): 50.7 °F
5-day plot - Wind Speed at 10 Meters Wind Speed at 10 meters (WSPD10M): 21.4 kts
5-day plot - Wind Speed at 20 Meters Wind Speed at 20 meters (WSPD20M): 23.3 kts
5-day plot -  Wind Speed, Wind Gust and Atmospheric Pressure Combined plot of Wind Speed, Gust, and Air Pressure
Previous observations
TIME
(EDT)
5-day plot - Wind Direction
WDIR
 
5-day plot - Wind Speed
WSPD
kts
5-day plot - Wind Gust
GST
kts
5-day plot - Wave Height
WVHT
ft
5-day plot - Dominant Wave Period
DPD
sec
5-day plot - Average Wave Period
APD
sec
5-day plot - Mean Wave Direction
MWD
 
5-day plot - Atmospheric Pressure
PRES
in
5-day plot - Pressure Tendency
PTDY
in
5-day plot - Air Temperature
ATMP
°F
5-day plot - Water Temperature
WTMP
°F
5-day plot - Dew Point
DEWP
°F
5-day plot - Salinity
SAL
psu
5-day plot - Visibility
VIS
nmi
5-day plot - Tide (above MLLW)
TIDE
ft
2024-04-14 11:15 pmSSW 15.5-----29.68- 59.7- 50.4---
2024-04-14 11:00 pmSSW 13.6-----29.68+0.03 57.9- 50.4---
2024-04-14 10:45 pmSSW 19.4-----29.67- 59.5- 50.7---
2024-04-14 10:30 pmSSW 19.4-----29.65- 58.5- 50.5---
2024-04-14 10:15 pm S 21.4-----29.61- 59.2- 50.5---
2024-04-14 10:00 pm S 23.3-----29.60-0.04 58.6- 51.3---
2024-04-14 09:45 pm S 23.3-----29.64- 59.0- 48.9---
2024-04-14 09:30 pm S 21.4-----29.66- 56.8- 46.4---
2024-04-14 09:15 pm S 19.4-----29.65- 54.5- 46.4---
2024-04-14 09:00 pmSSW 11.7-----29.70+0.08 53.4- 46.2---
2024-04-14 08:45 pmSSW 5.8-----29.69- 55.0- 45.7---
2024-04-14 08:30 pmSSW 9.7-----29.67- 57.0- 45.0---
2024-04-14 08:15 pm S 13.6-----29.62- 57.4- 44.8---
2024-04-14 08:00 pm SE 7.8-----29.65+0.01 55.6- 45.5---
2024-04-14 07:45 pmNNE 7.8-----29.68- 57.6- 45.0---
2024-04-14 07:15 pmSSE 7.8-----29.65- 59.9- 44.4---
2024-04-14 07:00 pmSSE 11.7-----29.64-0.04 60.6- 44.2---
2024-04-14 06:45 pmSSE 11.7-----29.63- 61.2- 44.4---
2024-04-14 06:30 pmSSE 11.7-----29.63- 61.2- 44.6---
2024-04-14 06:15 pm S 11.7-----29.63- 61.7- 44.4---
2024-04-14 06:00 pm S 13.6-----29.62-0.11 62.1- 44.2---
2024-04-14 05:45 pm S 17.5-----29.62- 62.6- 43.9---
2024-04-14 05:30 pm S 19.4-----29.62- 62.8- 43.7---
2024-04-14 05:15 pm S 17.5-----29.62- 63.1- 43.5---
2024-04-14 05:00 pm S 15.5-----29.64-0.10 62.6- 43.5---
2024-04-14 04:45 pm S 15.5-----29.65- 62.4- 43.2---
2024-04-14 04:30 pm S 15.5-----29.67- 62.4- 42.4---
2024-04-14 04:15 pm S 15.5-----29.68- 61.2- 42.6---
2024-04-14 04:00 pm S 15.5-----29.69-0.16 61.0- 42.6---
2024-04-14 03:45 pm S 9.7-----29.70- 57.9- 44.2---
2024-04-14 03:30 pmSSW 11.7-----29.71- 57.9- 43.9---
2024-04-14 03:15 pmSSW 9.7-----29.73- 57.7- 43.9---
2024-04-14 03:00 pmSSW 9.7-----29.73-0.15 57.7- 43.5---
2024-04-14 02:45 pmSSW 9.7-----29.74- 57.4- 43.2---
2024-04-14 02:30 pm S 11.7-----29.74- 58.8- 41.9---
2024-04-14 02:15 pm S 9.7-----29.75- 58.8- 41.2---
2024-04-14 02:00 pm S 11.7-----29.75-0.16 58.8- 41.0---
2024-04-14 01:45 pm S 19.4-----29.73- 58.5- 40.6---
2024-04-14 01:30 pm S 17.5-----29.78- 56.7- 41.9---
2024-04-14 01:15 pm S 13.6-----29.82- 55.4- 42.8---
2024-04-14 01:00 pmSSW 9.7-----29.85- 56.3- 42.3---
2024-04-14 12:45 pm SW 11.7-----29.86- 57.7- 40.8---
2024-04-14 12:30 pm SW 11.7-----29.87- 57.4- 41.0---
2024-04-14 12:15 pm SW 13.6-----29.86- 57.6- 40.5---
2024-04-14 12:00 pmSSW 13.6-----29.88-0.06 57.0- 40.6---
2024-04-14 11:45 amSSW 11.7-----29.88- 55.9- 41.2---
2024-04-14 11:30 amSSW 11.7-----29.89- 55.4- 41.0---
2024-04-14 11:15 amSSW 11.7-----29.90- 54.5- 41.2---
2024-04-14 11:00 am S 9.7-----29.91-0.04 54.1- 41.2---
2024-04-14 10:30 amSSW 11.7-----29.91- 54.7- 39.2---
2024-04-14 10:15 am- 0.0-------------
2024-04-14 10:00 am- 0.0-------------
2024-04-14 09:45 am- 0.0-------------
2024-04-14 09:30 am SW 9.7-----29.93- 52.7- 37.9---
2024-04-14 09:15 am SW 9.7-----29.94- 52.2- 38.1---
2024-04-14 09:00 amWSW 9.7-----29.94+0.05 52.0- 37.4---
2024-04-14 08:45 amWSW 9.7-----29.95- 51.6- 37.4---
2024-04-14 08:30 am SW 9.7-----29.95- 51.1- 37.8---
2024-04-14 08:15 am SW 7.8-----29.95- 50.7- 37.6---
2024-04-14 08:00 am SW 7.8-----29.94+0.04 50.4- 37.4---
2024-04-14 07:45 am SW 5.8-----29.94- 49.6- 38.5---
2024-04-14 07:30 amSSW 7.8-----29.93- 49.6- 37.8---
2024-04-14 07:15 amSSW 9.7-----29.92- 49.6- 36.9---
2024-04-14 07:00 am SW 9.7-----29.91+0.03 49.5- 36.9---
2024-04-14 06:45 amSSW 9.7-----29.91- 49.1- 37.9---
2024-04-14 06:30 am SW 9.7-----29.91- 49.1- 37.8---
2024-04-14 06:15 amSSW 9.7-----29.90- 49.1- 37.9---
2024-04-14 06:00 amSSW 7.8-----29.90+0.03 48.9- 38.8---
2024-04-14 05:45 am SW 7.8-----29.90- 49.1- 37.6---
2024-04-14 05:30 am SW 5.8-----29.90- 49.3- 37.0---
2024-04-14 05:15 amWSW 7.8-----29.90- 49.3- 36.7---
2024-04-14 05:00 amWSW 9.7-----29.90+0.04 49.5- 36.3---
2024-04-14 04:45 amWSW 9.7-----29.89- 49.6- 36.1---
2024-04-14 04:30 amWSW 7.8-----29.89- 49.8- 36.1---
2024-04-14 04:15 amWSW 9.7-----29.88- 49.8- 36.5---
2024-04-14 04:00 am W 11.7-----29.88+0.04 49.8- 37.0---
2024-04-14 03:45 am W 11.7-----29.88- 50.0- 37.0---
2024-04-14 03:30 am W 11.7-----29.87- 50.4- 36.5---
2024-04-14 03:15 am W 11.7-----29.87- 50.5- 36.3---
2024-04-14 03:00 am W 13.6-----29.87+0.03 50.7- 36.3---
2024-04-14 02:45 am W 13.6-----29.86- 50.7- 36.3---
2024-04-14 02:30 am W 17.5-----29.85- 50.7- 36.5---
2024-04-14 02:15 am W 17.5-----29.85- 50.9- 36.5---
2024-04-14 02:00 am W 17.5-----29.85+0.04 51.1- 36.5---
2024-04-14 01:45 am W 15.5-----29.85- 51.3- 36.5---
2024-04-14 01:30 am W 15.5-----29.85- 51.3- 36.5---
2024-04-14 01:15 am W 17.5-----29.85- 51.4- 36.3---
2024-04-14 01:00 am W 15.5-----29.85+0.04 51.4- 36.3---
2024-04-14 12:45 am W 17.5-----29.84- 51.6- 35.8---
2024-04-14 12:30 am W 17.5-----29.84- 51.4- 36.3---
2024-04-14 12:15 am W 15.5-----29.84- 51.3- 36.1---
2024-04-14 12:00 am W 13.6-----29.83+0.05 51.3- 36.3---
2024-04-13 11:45 pm W 13.6-----29.83- 51.4- 36.1---
2024-04-13 11:30 pm W 13.6-----29.83- 51.4- 36.0---
2024-04-13 11:15 pm W 15.5-----29.82- 51.4- 36.0---
2024-04-13 11:00 pm W 15.5-----29.82+0.08 51.3- 36.1---